Tracking 21606 objects as of 24-Oct-2020
HD Live streaming from Space Station
objects crossing your sky now

MOLNIYA 3-8

Track MOLNIYA 3-8 now!
MOLNIYA 3-8 is classified as:


NORAD ID: 10455
Int'l Code: 1977-105A
Perigee: 774.0 km
Apogee: 39,631.3 km
Inclination: 62.4 °
Period: 718.5 minutes
Semi major axis: 26573 km
RCS: 13.5006 m2 (large)
Launch date: October 28, 1977
Source: Commonwealth of Independent States (former USSR) (CIS)
Launch site: PLESETSK MISSILE AND SPACE COMPLEX (PKMTR)
aabbcc
Your satellite tracking list
Your tracking list is empty




NASA's NSSDC Master Catalog

Two Line Element Set (TLE):
1 10455U 77105A   20297.49311583 +.00000401 +00000-0 -19595-2 0  9996
2 10455 062.3717 091.6974 7311245 277.7258 012.2640 02.00412784315068
Source of the keplerian elements: AFSPC